User: anonymous   Login
Location: Carbonear
(47.7333°N, 53.2500°W)
Time: 08:43:52
(UTC+00:00)
Language:

BEESAT 2 - Orbit

View from above orbital plane
View from above orbital plane
View from above satellite
View from above satellite

Ground track
Ground track

The orbit data is extracted from the following two-line orbital elements,

1 39136U 13015G   22329.23528875  .00011121  00000-0  42604-3 0  9995
2 39136  64.8734 301.9663 0025121 291.3924  68.4527 15.26626519530424
Epoch (UTC): 25 November 2022 05:38:48
Eccentricity: 0.0025121
inclination: 64.8734°
perigee height: 468 km
apogee height: 503 km
right ascension of ascending node: 301.9663°
argument of perigee: 291.3924°
revolutions per day: 15.26626519
mean anomaly at epoch: 68.4527°
orbit number at epoch: 53042

The dashed part of the orbit path shows where the satellite is in the earth's shadow,  

DLR